Regional Weather Roundup
Issued by NWS

Home | Current Version | Previous Version | Text Only | Print | Product List | Glossary Off
Versions: 1 2 3 4 5 6 7 8 9 10 11 12 13 14 15 16 17 18 19 20 21 22 23 24 25 26 27 28 29 30 31 32 33 34 35 36 37 38 39 40 41 42 43 44 45 46 47 48 49 50

582
ASUS45 KBOU 240607
RWRCO

WEATHER ROUNDUP FOR COLORADO
NATIONAL WEATHER SERVICE DENVER/BOULDER CO
1200 AM MDT SAT JUN 24 2017

NOTE: "FAIR" INDICATES FEW OR NO CLOUDS BELOW 12000 FEET WITH NO
SIGNIFICANT WEATHER AND/OR OBSTRUCTIONS TO VISIBILITY.

COZ001>005-013-030-031-240700-
...NORTHWEST COLORADO...

CITY           SKY/WX    TMP DP  RH WIND       PRES   REMARKS
CRAIG          FAIR      47  39  74 CALM      30.24R
HAYDEN         FAIR      52  30  43 CALM      30.25S
MEEKER         FAIR      53  34  48 NE7       30.25R
RABBIT EARS PA FAIR      50  27  40 NW3       30.51F
STEAMBOAT SPGS FAIR      52  33  48 CALM      30.28S
WALDEN         FAIR      46  36  66 CALM      30.38S
$$

COZ006>008-011-240700-
...WEST CENTRAL VALLEYS...

CITY           SKY/WX    TMP DP  RH WIND       PRES   REMARKS
GRAND JUNCTION FAIR      77  18  11 S6        30.07R
MONTROSE       FAIR      67  26  21 SE13      30.16S
EAGLE          FAIR      57  28  33 SE5       30.28R
RIFLE          FAIR      62  29  28 E5        30.17R
DELTA          FAIR      73  23  15 NE3       30.12R
NUCLA          FAIR      68  21  17 E14       30.19S
$$

COZ017>023-064>068-240700-
...SOUTHWEST COLORADO...

CITY           SKY/WX    TMP DP  RH WIND       PRES   REMARKS
DURANGO        FAIR      62  15  16 CALM      30.20S
CORTEZ         FAIR      59  29  31 E6        30.16R
PAGOSA SPRINGS FAIR      61  13  14 CALM      30.30R
TELLURIDE      FAIR      57  22  25 SE7       30.45S
WOLF CREEK PAS FAIR      52  10  19 W9G16     30.69S
$$

COZ009-010-012-014-032>034-037-058>063-240700-
...CENTRAL COLORADO...

CITY           SKY/WX    TMP DP  RH WIND       PRES   REMARKS
ASPEN          FAIR      52  30  43 SW8       30.32S
BUENA VISTA    CLOUDY    50  45  81 SE9       30.44S
COPPER MTN     FAIR      48  14  25 W8        30.62S
BERTHOUD PASS  FAIR      37  27  65 NW22      30.63S
COTTONWOOD PAS FOG       46  43  87 CALM      30.52R VSB 1/2
GUNNISON       FAIR      54  33  45 W3        30.32R
KREMMLING      NOT AVBL
LEADVILLE      FAIR      42  36  79 S6        30.48R
MONARCH PASS   FAIR      50  19  29 N6        30.73S
SALIDA         CLOUDY    53  47  82 E6        30.50R
SUNLIGHT       FAIR      52  18  25 CALM      30.57S
WILKERSON PASS FAIR      39  30  70 E10       30.61S
$$

COZ069>075-240700-
...SAN LUIS VALLEY/SANGRE DE CRISTO MOUNTAINS...

CITY           SKY/WX    TMP DP  RH WIND       PRES   REMARKS
ALAMOSA        FAIR      52  44  74 E10       30.30R
DEL NORTE      FAIR      59  22  23 W9        30.33R
LA VETA PASS   LGT RAIN  43  41  93 N14G20    30.63R VSB<1/4
SAGUACHE       FAIR      59  19  21 N13       30.32S
$$

COZ035-036-038>040-240700-
...NORTHERN COLORADO FRONT RANGE...

CITY           SKY/WX    TMP DP  RH WIND       PRES   REMARKS
DENVER INTL AP FAIR      53  46  77 SW7       30.34S
DMNS CITY PARK   N/A     52  49  92 SE8       30.34S
AURORA         PTCLDY    49  47  92 S7        30.36S
FRONT RANGE AP FAIR      52  46  82 SW6       30.35F
ERIE MUNI ARPT FAIR      54  49  86 CALM      30.33S
BOULDER MUN AP CLOUDY    54  48  82 S3        30.33S
CENTENNIAL     FAIR      48  46  93 S3        30.36S
BROOMFIELD     FAIR      52  46  82 W3        30.35F
FORT COLLINS   MOCLDY    54  48  80 S7        30.33S
LONGMONT       CLOUDY    58  49  72 CALM      30.34F
$$

COZ041-046-047-076>085-087-088-240700-
...PIKES PEAK/PALMER DIVIDE AND SOUTHERN FOOTHILLS...

CITY           SKY/WX    TMP DP  RH WIND       PRES   REMARKS
COLO. SPRINGS  CLOUDY    56  48  74 CALM      30.39R
A. F. ACADEMY  CLOUDY    53  48  82 S5        30.39R
SCHRIEVER AFB  CLOUDY    55  46  72 CALM      30.39S
CHEYENNE MTN   CLOUDY    51  47  86 S5        30.35S
ELLICOTT       CLOUDY     1  32 100 SW3       30.37S
FALCON           N/A     53  46  76 SW3       30.42S
FORT CARSON    CLOUDY    56  48  75 SW3       30.36S
LIMON          CLOUDY    49  41  74 N5        30.35R
MONUMENT HILL  CLOUDY    46  45  93 S3        30.42S
CANON CITY     CLOUDY    59  54  82 CALM      30.35S
WALSENBURG     CLOUDY    57  50  77 N5        30.38S
TRINIDAD       CLOUDY    60  44  55 VRB3      30.35S
$$

COZ042>045-048>051-090-091-240700-
...NORTHEAST COLORADO...

CITY           SKY/WX    TMP DP  RH WIND       PRES   REMARKS
GREELEY ARPT   MOCLDY    57  50  77 CALM      30.32S
AKRON          CLOUDY    56  45  66 W5        30.31R
BURLINGTON     FAIR      53  49  86 W6        30.29R
WRAY           FAIR      54  46  76 N9        30.27R
YUMA           CLOUDY    59  46  63 NW6       30.29R
STERLING       FAIR      57  45  62 E5        30.27F
HOLYOKE        NOT AVBL
FORT MORGAN    CLOUDY    60  48  65 NW10      30.32R
$$

COZ086-089-092>099-240700-
...SOUTHEAST COLORADO...

CITY           SKY/WX    TMP DP  RH WIND       PRES   REMARKS
PUEBLO         CLOUDY    62  52  69 NW5       30.31S
LA JUNTA       CLOUDY    65  48  54 E3        30.29S
LAMAR          CLOUDY    66  46  48 E5        30.27R
SPRINGFIELD      N/A     60  48  64 CALM      30.30R
$$




USA.gov is the U.S. government's official web portal to all federal, state and local government web resources and services.